Content
SEND FEEDBACK

Daily
Averages
Monthly
Summary
United Kingdom

NEWTOWNNARDS, NORTHERN IRELAND


Home > Europe > United Kingdom > Northern Ireland
Elevation: 112 feet     Latitude: 54 40N     Longitude: 005 35W

WEATHER
 
SELECT A DAY
Number of Records: 190,661;   Date Range: 7/1/96 - 7/27/14
 
SHARE

PRINT THIS DATA

[ ← Previous Day ]
WEATHER ALMANAC - FEBRUARY 10, 2013
[ Next Day → ]
[ °C ]   °F
Weather ElementAverageHighLow
Temperature40.5 °F42.8 °F (6:50 am)39.2 °F (4:20 pm)
Dewpoint39.4 °F42.8 °F (6:50 am)37.4 °F (4:50 pm)
Humidity95.7 %100 % (6:50 am)93 % (7:20 am)
Barometer29.31 in29.42 in (6:50 am)29.27 in (1:20 pm)
Wind Speed14.1 mph17.3 mph (7:20 am)
Weather ElementAverage
Visibility4.6 mi
Wind DirectionESE (98.1 °)

Weather ElementTotal
Precipitation---
Heating Degree Days24 (Base 65)
Averaged from 31 records on February 10, 2013
WEATHER CONDITIONS BREAKOUT
WIND DIRECTION BREAKOUT
WEATHER BY HOUR - FEBRUARY 10, 2013
[ °C ]   °F
Local TimeTemperatureDewpointHumidityBarometerVisibilityWind DirectionWind SpeedGust SpeedPrecipitationEventsConditions
6:50 AM42.8 °F42.8 °F100 %29.42 in2.5 miESE (110°)11.5 mphRainLight Rain
7:20 AM42.8 °F41.0 °F93 %29.42 in2.5 miESE (110°)17.3 mphRainLight Rain
7:50 AM41.0 °F41.0 °F100 %29.42 in3.1 miEast (100°)16.1 mphRainLight Rain
8:20 AM41.0 °F41.0 °F100 %29.39 in3.1 miESE (110°)15.0 mphRainLight Rain
8:50 AM41.0 °F41.0 °F100 %29.39 in3.1 miEast (100°)15.0 mphRainLight Rain
9:20 AM41.0 °F41.0 °F100 %29.36 in3.1 miEast (100°)16.1 mphRainLight Rain
9:50 AM41.0 °F41.0 °F100 %29.36 in4.3 miEast (100°)15.0 mphRainRain
10:20 AM41.0 °F41.0 °F100 %29.33 in4.3 miESE (110°)16.1 mphRainRain
10:50 AM41.0 °F41.0 °F100 %29.33 in4.3 miESE (110°)16.1 mphRainRain
11:20 AM41.0 °F41.0 °F100 %29.33 in5.6 miESE (110°)16.1 mphRainRain
11:50 AM42.8 °F41.0 °F93 %29.30 in5.6 miESE (110°)15.0 mphRainLight Rain
12:20 PM41.0 °F41.0 °F100 %29.30 in5.6 miESE (120°)13.8 mphRainLight Rain
12:50 PM41.0 °F41.0 °F100 %29.30 in5.6 miESE (110°)15.0 mphRainLight Rain
1:20 PM41.0 °F39.2 °F93 %29.27 in5.6 miESE (110°)13.8 mphRainLight Rain
1:50 PM41.0 °F39.2 °F93 %29.27 in5.6 miESE (110°)16.1 mphRainLight Rain
2:20 PM41.0 °F39.2 °F93 %29.27 in5.6 miEast (100°)11.5 mphRainLight Rain
2:50 PM41.0 °F39.2 °F93 %29.27 in4.3 miEast (100°)11.5 mphRainLight Rain
3:20 PM41.0 °F39.2 °F93 %29.27 in4.3 miESE (110°)13.8 mphRainLight Rain
3:50 PM41.0 °F39.2 °F93 %29.27 in2.8 miEast (100°)15.0 mphRainLight Rain
4:20 PM39.2 °F39.2 °F100 %29.27 in3.7 miEast (90°)12.7 mphRainLight Rain
4:50 PM39.2 °F37.4 °F93 %29.27 in3.1 miEast (90°)16.1 mphRainLight Rain
5:20 PM39.2 °F37.4 °F93 %29.27 in3.7 miEast (90°)12.7 mphRainLight Rain
5:50 PM39.2 °F37.4 °F93 %29.27 in3.7 miEast (80°)13.8 mphRainLight Rain
6:20 PM39.2 °F37.4 °F93 %29.27 in3.7 miEast (90°)11.5 mphRainLight Rain
6:50 PM39.2 °F37.4 °F93 %29.27 in6.2 miEast (90°)12.7 mphRainLight Rain
7:20 PM39.2 °F37.4 °F93 %29.27 in6.2 miEast (80°)11.5 mphRainLight Rain
7:50 PM39.2 °F37.4 °F93 %29.27 in6.2 miEast (90°)10.4 mphRainLight Rain
8:20 PM39.2 °F37.4 °F93 %29.27 in6.2 miEast (80°)11.5 mphRainLight Rain
8:50 PM39.2 °F37.4 °F93 %29.27 in6.2 miEast (80°)12.7 mphRainLight Rain
9:20 PM39.2 °F37.4 °F93 %29.30 in6.2 miENE (70°)16.1 mphRainLight Rain
9:50 PM39.2 °F37.4 °F93 %29.30 in6.2 miEast (80°)15.0 mphRainLight Rain
Hourly data recorded from EGAC, located miles away from Newtownnards, Northern Ireland







STORIES FROM OUR PARTNERS